This is the latest recevied weather packets stored in our database for station/object VA7NEZ. If no packets are shown the sender has not sent any weather packets the latest 10 day(s).
| Time | Temp. | Humidity | Pressure | Rain* | Wind** | Luminosity | Snow |
|---|---|---|---|---|---|---|---|
| 1777553951 | 3.89° C | 77% | 1024.2 hPa | 0 mm | - | - | - |
| 1777552256 | 4.44° C | 75% | 1024.1 hPa | 0 mm | - | - | - |
| 1777550177 | 5° C | 74% | 1024.2 hPa | 0 mm | - | - | - |
| 1777548476 | 5° C | 73% | 1024.2 hPa | 0 mm | - | - | - |
| 1777547976 | 0° C | 100% | 1024 hPa | 0 mm | - | - | - |
| 1777547376 | 0° C | 100% | 1024 hPa | 0 mm | - | - | - |
| 1777546257 | 5.56° C | 72% | 1024.2 hPa | 0 mm | - | - | - |
| 1777544716 | 0° C | 100% | 1023.9 hPa | 0 mm | - | - | - |
| 1777544124 | 6.11° C | 74% | 1024 hPa | 0 mm | - | - | - |
| 1777543566 | 6.11° C | 76% | 1024 hPa | 0 mm | - | - | - |
| 1777542016 | 6.67° C | 69% | 1023.8 hPa | 0 mm | - | - | - |
| 1777541531 | 6.67° C | 69% | 1023.8 hPa | 0 mm | - | - | - |
| 1777540473 | 0° C | 100% | 1023.8 hPa | 0 mm | - | - | - |
| 1777539436 | 7.22° C | 69% | 1023.9 hPa | 0 mm | - | - | - |
| 1777538256 | 0° C | 100% | 1023.5 hPa | 0 mm | - | - | - |
| 1777537158 | 7.78° C | 69% | 1023.4 hPa | 0 mm | - | - | - |
| 1777536607 | 0° C | 100% | 1023.2 hPa | 0 mm | - | - | - |
| 1777536051 | 8.33° C | 65% | 1023.4 hPa | 0 mm | - | - | - |
| 1777534491 | 8.89° C | 64% | 1023 hPa | 0 mm | - | - | - |
| 1777533926 | 8.89° C | 64% | 1023.1 hPa | 0 mm | - | - | - |
| 1777532914 | 9.44° C | 63% | 1022.9 hPa | 0 mm | - | - | - |
| 1777532396 | 9.44° C | 63% | 1022.8 hPa | 0 mm | - | - | - |
| 1777531276 | 10° C | 63% | 1022.8 hPa | 0 mm | - | - | - |
| 1777530731 | 0° C | 100% | 1022.8 hPa | 0 mm | - | - | - |
| 1777529641 | 10.56° C | 62% | 1022.8 hPa | 0 mm | - | - | - |
* Rain latest hour (hover to see other rain measurements)
** Current wind speed in m/s (hover to see current wind gust speed)